TimeCST,TemperatureF,Dew PointF,Humidity,Sea Level PressureIn,VisibilityMPH,Wind Direction,Wind SpeedMPH,Gust SpeedMPH,PrecipitationIn,Events,Conditions,WindDirDegrees,DateUTC
12:15 AM,23.7,12.7,63,30.21,10.0,NW,10.4,-,N/A,,Clear,310,2013-03-05 06:15:00
12:35 AM,22.1,13.1,68,30.22,10.0,WNW,9.2,-,N/A,,Clear,290,2013-03-05 06:35:00
12:55 AM,23.2,12.0,62,30.22,10.0,NW,11.5,18.4,N/A,,Clear,320,2013-03-05 06:55:00
1:15 AM,22.8,12.4,64,30.23,10.0,NW,8.1,-,N/A,,Clear,310,2013-03-05 07:15:00
1:55 AM,22.8,11.7,62,30.24,10.0,NNW,10.4,16.1,N/A,,Clear,340,2013-03-05 07:55:00
2:35 AM,22.1,11.3,63,30.25,10.0,NNW,11.5,-,N/A,,Clear,340,2013-03-05 08:35:00
2:55 AM,20.5,11.1,67,30.25,10.0,NW,8.1,-,N/A,,Clear,310,2013-03-05 08:55:00
3:15 AM,19.4,10.9,70,30.25,10.0,NW,6.9,-,N/A,,Clear,310,2013-03-05 09:15:00
3:35 AM,19.8,11.3,70,30.25,10.0,WNW,8.1,-,N/A,,Clear,290,2013-03-05 09:35:00
3:55 AM,20.5,10.4,65,30.25,10.0,NW,5.8,-,N/A,,Clear,320,2013-03-05 09:55:00
4:15 AM,23.0,9.5,56,30.26,10.0,NNW,12.7,18.4,N/A,,Clear,340,2013-03-05 10:15:00
4:55 AM,22.6,8.4,55,30.27,10.0,North,4.6,-,N/A,,Clear,10,2013-03-05 10:55:00
5:15 AM,22.6,7.7,53,30.28,10.0,NNW,3.5,-,N/A,,Clear,330,2013-03-05 11:15:00
5:35 AM,22.5,7.9,54,30.28,10.0,Calm,Calm,-,N/A,,Clear,0,2013-03-05 11:35:00
5:55 AM,22.3,7.7,54,30.28,10.0,NNW,8.1,-,N/A,,Clear,340,2013-03-05 11:55:00
6:15 AM,21.0,8.6,59,30.28,10.0,NW,9.2,-,N/A,,Clear,320,2013-03-05 12:15:00
6:55 AM,18.1,8.6,66,30.29,10.0,WNW,6.9,-,N/A,,Clear,300,2013-03-05 12:55:00
7:15 AM,15.1,8.2,74,30.29,10.0,West,8.1,-,N/A,,Clear,260,2013-03-05 13:15:00
7:35 AM,14.0,8.6,79,30.30,10.0,West,9.2,-,N/A,,Clear,260,2013-03-05 13:35:00
7:55 AM,16.5,10.2,76,30.31,10.0,West,6.9,-,N/A,,Clear,280,2013-03-05 13:55:00
8:15 AM,20.1,10.8,67,30.31,10.0,WNW,6.9,-,N/A,,Clear,290,2013-03-05 14:15:00
8:35 AM,22.8,12.4,64,30.32,10.0,NW,9.2,-,N/A,,Clear,310,2013-03-05 14:35:00
8:55 AM,25.3,13.8,62,30.31,10.0,NNW,11.5,-,N/A,,Clear,330,2013-03-05 14:55:00
9:15 AM,26.6,13.5,58,30.32,10.0,NW,12.7,18.4,N/A,,Clear,320,2013-03-05 15:15:00
9:35 AM,27.3,14.2,58,30.33,10.0,NW,10.4,-,N/A,,Clear,320,2013-03-05 15:35:00
9:55 AM,28.6,15.1,57,30.33,10.0,NW,12.7,18.4,N/A,,Clear,310,2013-03-05 15:55:00
10:15 AM,30.2,15.8,55,30.34,10.0,NW,12.7,18.4,N/A,,Clear,320,2013-03-05 16:15:00
10:35 AM,31.1,15.4,52,30.34,10.0,WNW,12.7,-,N/A,,Clear,300,2013-03-05 16:35:00
10:55 AM,32.2,16.3,52,30.34,10.0,NW,11.5,17.3,N/A,,Clear,320,2013-03-05 16:55:00
11:15 AM,33.1,16.0,50,30.35,10.0,NW,13.8,23.0,N/A,,Clear,310,2013-03-05 17:15:00
11:35 AM,34.7,14.2,43,30.34,10.0,NW,12.7,18.4,N/A,,Clear,320,2013-03-05 17:35:00
11:55 AM,36.0,12.2,38,30.34,10.0,NNW,12.7,-,N/A,,Clear,330,2013-03-05 17:55:00
12:15 PM,36.9,8.8,31,30.34,10.0,NW,8.1,18.4,N/A,,Clear,320,2013-03-05 18:15:00
12:35 PM,38.3,8.1,29,30.34,10.0,NW,11.5,18.4,N/A,,Clear,310,2013-03-05 18:35:00
12:55 PM,39.0,8.4,28,30.33,10.0,NW,12.7,17.3,N/A,,Clear,310,2013-03-05 18:55:00
1:15 PM,39.7,5.5,24,30.32,10.0,NW,8.1,18.4,N/A,,Clear,310,2013-03-05 19:15:00
1:35 PM,41.4,7.3,25,30.31,10.0,NW,11.5,-,N/A,,Clear,320,2013-03-05 19:35:00
1:55 PM,41.5,7.5,25,30.29,10.0,NW,15.0,-,N/A,,Clear,310,2013-03-05 19:55:00
2:15 PM,42.8,6.4,22,30.28,10.0,NW,8.1,-,N/A,,Clear,310,2013-03-05 20:15:00
2:35 PM,42.6,6.8,23,30.28,10.0,NW,10.4,18.4,N/A,,Clear,310,2013-03-05 20:35:00
2:55 PM,43.3,6.8,22,30.27,10.0,NW,9.2,-,N/A,,Clear,310,2013-03-05 20:55:00
3:15 PM,44.2,6.6,21,30.26,10.0,NW,9.2,-,N/A,,Clear,310,2013-03-05 21:15:00
3:35 PM,43.9,6.1,21,30.26,10.0,North,3.5,-,N/A,,Clear,360,2013-03-05 21:35:00
3:55 PM,44.6,5.9,20,30.26,10.0,WNW,4.6,-,N/A,,Clear,290,2013-03-05 21:55:00
4:15 PM,45.0,5.4,20,30.26,10.0,WNW,6.9,-,N/A,,Clear,300,2013-03-05 22:15:00
4:35 PM,44.1,5.2,20,30.26,10.0,West,6.9,-,N/A,,Clear,280,2013-03-05 22:35:00
4:55 PM,44.2,6.3,21,30.25,10.0,West,4.6,-,N/A,,Clear,260,2013-03-05 22:55:00
5:15 PM,43.2,5.7,21,30.25,10.0,Calm,Calm,-,N/A,,Clear,0,2013-03-05 23:15:00
5:35 PM,43.3,5.9,21,30.25,10.0,Calm,Calm,-,N/A,,Clear,0,2013-03-05 23:35:00
5:55 PM,42.4,6.8,23,30.26,10.0,SSW,3.5,-,N/A,,Clear,200,2013-03-05 23:55:00
6:15 PM,41.4,6.4,24,30.26,10.0,SE,3.5,-,N/A,,Clear,130,2013-03-06 00:15:00
6:35 PM,40.5,7.5,26,30.26,10.0,SE,3.5,-,N/A,,Clear,130,2013-03-06 00:35:00
6:55 PM,34.3,10.8,38,30.25,10.0,ESE,6.9,-,N/A,,Clear,110,2013-03-06 00:55:00
7:15 PM,31.1,12.0,45,30.25,10.0,ESE,6.9,-,N/A,,Clear,110,2013-03-06 01:15:00
7:35 PM,29.8,12.2,48,30.26,10.0,SE,6.9,-,N/A,,Clear,130,2013-03-06 01:35:00
7:55 PM,28.2,12.7,52,30.26,10.0,SE,9.2,-,N/A,,Clear,130,2013-03-06 01:55:00
8:15 PM,27.3,13.1,55,30.26,10.0,SE,9.2,-,N/A,,Clear,140,2013-03-06 02:15:00
8:35 PM,25.3,14.0,62,30.26,10.0,SE,8.1,-,N/A,,Clear,130,2013-03-06 02:35:00
8:55 PM,26.2,14.9,62,30.26,10.0,SSE,9.2,-,N/A,,Clear,150,2013-03-06 02:55:00
9:15 PM,26.8,14.9,61,30.26,10.0,SSE,10.4,-,N/A,,Clear,150,2013-03-06 03:15:00
9:35 PM,26.6,14.5,60,30.26,10.0,SSE,10.4,-,N/A,,Clear,150,2013-03-06 03:35:00
9:55 PM,27.1,14.9,60,30.26,10.0,SSE,9.2,-,N/A,,Clear,150,2013-03-06 03:55:00
10:15 PM,26.8,14.9,61,30.26,10.0,SE,9.2,-,N/A,,Clear,140,2013-03-06 04:15:00
10:35 PM,27.1,15.4,61,30.26,10.0,SSE,10.4,-,N/A,,Clear,150,2013-03-06 04:35:00
10:55 PM,26.6,15.6,63,30.26,10.0,SSE,11.5,-,N/A,,Clear,150,2013-03-06 04:55:00
11:15 PM,25.5,15.8,67,30.26,10.0,SSE,9.2,-,N/A,,Clear,150,2013-03-06 05:15:00
11:35 PM,24.6,15.8,69,30.26,10.0,SSE,9.2,-,N/A,,Clear,150,2013-03-06 05:35:00
11:55 PM,24.8,16.2,70,30.25,10.0,SE,8.1,-,N/A,,Clear,140,2013-03-06 05:55:00